Time,TemperatureF,DewpointF,PressureIn,WindDirection,WindDirectionDegrees,WindSpeedMPH,WindSpeedGustMPH,Humidity,HourlyPrecipIn,Conditions,Clouds,dailyrainin,SoftwareType,DateUTC
2013-03-31 00:00:00,64.7,60.8,29.88,South,169,3.0,5.0,87,0.00,,---,0.54,VWS V14.01,2013-03-31 05:00:00,
2013-03-31 00:05:00,64.9,60.9,29.88,South,172,6.0,6.0,87,0.00,,---,0.00,VWS V14.01,2013-03-31 05:05:00,
2013-03-31 00:10:00,65.0,60.7,29.88,SSE,162,3.0,6.0,86,0.00,,---,0.00,VWS V14.01,2013-03-31 05:10:00,
2013-03-31 00:15:00,65.1,60.8,29.88,SSE,163,1.0,6.0,86,0.00,,---,0.00,VWS V14.01,2013-03-31 05:15:00,
2013-03-31 00:20:00,65.1,60.5,29.88,South,183,1.0,6.0,85,0.00,,---,0.00,VWS V14.01,2013-03-31 05:20:00,
2013-03-31 00:25:00,65.0,60.4,29.88,SSE,158,0.0,6.0,85,0.00,,---,0.00,VWS V14.01,2013-03-31 05:25:00,
2013-03-31 00:30:00,64.9,60.6,29.88,SE,146,1.0,6.0,86,0.00,,---,0.00,VWS V14.01,2013-03-31 05:30:00,
2013-03-31 00:35:00,64.8,60.5,29.88,SSE,158,0.0,1.0,86,0.00,,---,0.00,VWS V14.01,2013-03-31 05:35:00,
2013-03-31 00:40:00,64.7,60.4,29.88,SSE,162,0.0,1.0,86,0.00,,---,0.00,VWS V14.01,2013-03-31 05:40:00,
2013-03-31 00:45:00,64.6,60.3,29.88,SSE,150,0.0,1.0,86,0.00,,---,0.00,VWS V14.01,2013-03-31 05:45:00,
2013-03-31 00:50:00,64.5,60.2,29.88,SSE,158,2.0,2.0,86,0.00,,---,0.00,VWS V14.01,2013-03-31 05:50:00,
2013-03-31 00:55:00,64.4,60.1,29.88,SSE,151,2.0,3.0,86,0.00,,---,0.00,VWS V14.01,2013-03-31 05:55:00,
2013-03-31 01:00:00,64.4,60.1,29.88,SSE,165,1.0,5.0,86,0.00,,---,0.00,VWS V14.01,2013-03-31 06:00:00,
2013-03-31 01:05:00,64.5,60.2,29.88,SSE,155,3.0,3.0,86,0.00,,---,0.00,VWS V14.01,2013-03-31 06:05:00,
2013-03-31 01:10:00,64.6,60.3,29.88,SE,141,3.0,4.0,86,0.00,,---,0.00,VWS V14.01,2013-03-31 06:10:00,
2013-03-31 01:15:00,64.8,60.5,29.88,SSE,154,1.0,6.0,86,0.00,,---,0.00,VWS V14.01,2013-03-31 06:15:00,
2013-03-31 01:20:00,65.0,60.7,29.88,South,184,2.0,6.0,86,0.00,,---,0.00,VWS V14.01,2013-03-31 06:20:00,
2013-03-31 01:25:00,65.0,60.4,29.88,SSE,165,4.0,6.0,85,0.00,,---,0.00,VWS V14.01,2013-03-31 06:25:00,
2013-03-31 01:30:00,65.1,60.5,29.88,SSE,148,2.0,6.0,85,0.00,,---,0.00,VWS V14.01,2013-03-31 06:30:00,
2013-03-31 01:35:00,65.2,60.6,29.88,SSE,160,4.0,5.0,85,0.00,,---,0.00,VWS V14.01,2013-03-31 06:35:00,
2013-03-31 01:40:00,65.2,60.6,29.88,SSE,166,3.0,5.0,85,0.00,,---,0.00,VWS V14.01,2013-03-31 06:40:00,
2013-03-31 01:45:00,65.2,60.6,29.88,SE,143,2.0,7.0,85,0.00,,---,0.00,VWS V14.01,2013-03-31 06:45:00,
2013-03-31 01:50:00,65.1,60.5,29.88,SE,127,1.0,7.0,85,0.00,,---,0.00,VWS V14.01,2013-03-31 06:50:00,
2013-03-31 01:55:00,64.9,60.6,29.88,SE,134,0.0,7.0,86,0.00,,---,0.00,VWS V14.01,2013-03-31 06:55:00,
2013-03-31 02:00:00,64.5,60.2,29.88,East,101,3.0,7.0,86,0.00,,---,0.00,VWS V14.01,2013-03-31 07:00:00,
2013-03-31 02:05:00,64.0,60.1,29.88,SE,131,1.0,5.0,87,0.00,,---,0.00,VWS V14.01,2013-03-31 07:05:00,
2013-03-31 02:10:00,63.7,60.1,29.88,ESE,111,4.0,5.0,88,0.00,,---,0.00,VWS V14.01,2013-03-31 07:10:00,
2013-03-31 02:15:00,63.5,59.9,29.88,SE,138,3.0,5.0,88,0.00,,---,0.00,VWS V14.01,2013-03-31 07:15:00,
2013-03-31 02:20:00,63.4,60.1,29.88,SE,141,2.0,5.0,89,0.00,,---,0.00,VWS V14.01,2013-03-31 07:20:00,
2013-03-31 02:25:00,63.3,60.0,29.88,ESE,117,2.0,5.0,89,0.00,,---,0.00,VWS V14.01,2013-03-31 07:25:00,
2013-03-31 02:30:00,63.4,60.1,29.88,ESE,108,3.0,5.0,89,0.00,,---,0.00,VWS V14.01,2013-03-31 07:30:00,
2013-03-31 02:35:00,63.5,60.2,29.88,SE,125,2.0,4.0,89,0.00,,---,0.00,VWS V14.01,2013-03-31 07:35:00,
2013-03-31 02:40:00,63.5,60.2,29.88,SE,134,0.0,4.0,89,0.00,,---,0.00,VWS V14.01,2013-03-31 07:40:00,
2013-03-31 02:45:00,63.5,60.2,29.87,ESE,117,4.0,4.0,89,0.00,,---,0.00,VWS V14.01,2013-03-31 07:45:00,
2013-03-31 02:50:00,63.5,60.2,29.88,SE,127,2.0,4.0,89,0.00,,---,0.00,VWS V14.01,2013-03-31 07:50:00,
2013-03-31 02:55:00,63.5,60.5,29.87,SE,130,4.0,4.0,90,0.00,,---,0.00,VWS V14.01,2013-03-31 07:55:00,
2013-03-31 03:00:00,63.6,60.6,29.87,SE,124,1.0,4.0,90,0.00,,---,0.00,VWS V14.01,2013-03-31 08:00:00,
2013-03-31 03:05:00,63.5,60.5,29.87,SE,125,2.0,3.0,90,0.00,,---,0.00,VWS V14.01,2013-03-31 08:05:00,
2013-03-31 03:10:00,63.6,60.6,29.87,SE,140,2.0,3.0,90,0.00,,---,0.00,VWS V14.01,2013-03-31 08:10:00,
2013-03-31 03:15:00,63.6,60.6,29.87,SSE,155,1.0,3.0,90,0.00,,---,0.00,VWS V14.01,2013-03-31 08:15:00,
2013-03-31 03:20:00,63.4,60.4,29.87,SSE,148,1.0,3.0,90,0.00,,---,0.00,VWS V14.01,2013-03-31 08:20:00,
2013-03-31 03:25:00,63.4,60.4,29.87,SSE,151,1.0,3.0,90,0.00,,---,0.00,VWS V14.01,2013-03-31 08:25:00,
2013-03-31 03:30:00,63.3,60.6,29.87,South,176,2.0,3.0,91,0.00,,---,0.00,VWS V14.01,2013-03-31 08:30:00,
2013-03-31 03:35:00,63.4,60.7,29.87,SSE,153,2.0,3.0,91,0.00,,---,0.00,VWS V14.01,2013-03-31 08:35:00,
2013-03-31 03:40:00,63.4,60.7,29.87,SSE,163,2.0,3.0,91,0.00,,---,0.00,VWS V14.01,2013-03-31 08:40:00,
2013-03-31 03:45:00,63.4,60.7,29.87,SSE,160,2.0,4.0,91,0.00,,---,0.00,VWS V14.01,2013-03-31 08:45:00,
2013-03-31 03:50:00,63.4,60.7,29.86,SSE,165,3.0,4.0,91,0.00,,---,0.00,VWS V14.01,2013-03-31 08:50:00,
2013-03-31 03:55:00,63.4,60.7,29.86,SSE,163,3.0,4.0,91,0.00,,---,0.00,VWS V14.01,2013-03-31 08:55:00,
2013-03-31 04:00:00,63.3,60.6,29.86,SSE,163,3.0,4.0,91,0.00,,---,0.00,VWS V14.01,2013-03-31 09:00:00,
2013-03-31 04:05:00,63.3,60.6,29.86,South,169,4.0,5.0,91,0.00,,---,0.00,VWS V14.01,2013-03-31 09:05:00,
2013-03-31 04:10:00,63.2,60.5,29.85,SSE,163,4.0,6.0,91,0.00,,---,0.00,VWS V14.01,2013-03-31 09:10:00,
2013-03-31 04:15:00,63.2,60.8,29.85,South,171,3.0,6.0,92,0.00,,---,0.00,VWS V14.01,2013-03-31 09:15:00,
2013-03-31 04:20:00,63.2,60.8,29.85,SSE,156,4.0,6.0,92,0.00,,---,0.00,VWS V14.01,2013-03-31 09:20:00,
2013-03-31 04:25:00,63.2,60.8,29.85,SSE,162,4.0,6.0,92,0.00,,---,0.00,VWS V14.01,2013-03-31 09:25:00,
2013-03-31 04:30:00,63.1,60.7,29.84,SSE,161,4.0,8.0,92,0.00,,---,0.00,VWS V14.01,2013-03-31 09:30:00,
2013-03-31 04:35:00,63.0,60.6,29.84,South,186,3.0,5.0,92,0.00,,---,0.00,VWS V14.01,2013-03-31 09:35:00,
2013-03-31 04:40:00,62.8,60.5,29.84,SSE,148,1.0,5.0,92,0.00,,---,0.00,VWS V14.01,2013-03-31 09:40:00,
2013-03-31 04:45:00,62.3,60.0,29.84,SE,140,1.0,5.0,92,0.00,,---,0.00,VWS V14.01,2013-03-31 09:45:00,
2013-03-31 04:50:00,62.1,60.1,29.84,SSE,166,1.0,5.0,93,0.00,,---,0.00,VWS V14.01,2013-03-31 09:50:00,
2013-03-31 04:55:00,62.2,60.2,29.84,SE,135,1.0,5.0,93,0.00,,---,0.00,VWS V14.01,2013-03-31 09:55:00,
2013-03-31 05:00:00,62.2,60.2,29.84,ESE,120,4.0,5.0,93,0.00,,---,0.00,VWS V14.01,2013-03-31 10:00:00,
2013-03-31 05:05:00,61.9,59.9,29.84,SE,134,1.0,3.0,93,0.00,,---,0.00,VWS V14.01,2013-03-31 10:05:00,
2013-03-31 05:10:00,61.9,60.2,29.84,ESE,113,4.0,4.0,94,0.00,,---,0.00,VWS V14.01,2013-03-31 10:10:00,
2013-03-31 05:15:00,61.9,60.2,29.84,SE,124,3.0,4.0,94,0.00,,---,0.00,VWS V14.01,2013-03-31 10:15:00,
2013-03-31 05:20:00,61.8,60.1,29.84,ESE,118,2.0,4.0,94,0.00,,---,0.00,VWS V14.01,2013-03-31 10:20:00,
2013-03-31 05:25:00,61.7,60.0,29.84,SSE,159,2.0,4.0,94,0.00,,---,0.00,VWS V14.01,2013-03-31 10:25:00,
2013-03-31 05:30:00,61.8,60.1,29.84,SSE,163,3.0,4.0,94,0.00,,---,0.00,VWS V14.01,2013-03-31 10:30:00,
2013-03-31 05:35:00,61.9,60.5,29.84,South,173,3.0,5.0,95,0.00,,---,0.00,VWS V14.01,2013-03-31 10:35:00,
2013-03-31 05:40:00,62.2,60.8,29.84,ESE,111,3.0,7.0,95,0.00,,---,0.00,VWS V14.01,2013-03-31 10:40:00,
2013-03-31 05:45:00,62.5,61.0,29.84,SSE,163,4.0,8.0,95,0.00,,---,0.00,VWS V14.01,2013-03-31 10:45:00,
2013-03-31 05:50:00,62.8,61.3,29.84,SSE,160,5.0,11.0,95,0.00,,---,0.00,VWS V14.01,2013-03-31 10:50:00,
2013-03-31 05:55:00,62.9,61.2,29.84,SSE,163,6.0,11.0,94,0.00,,---,0.00,VWS V14.01,2013-03-31 10:55:00,
2013-03-31 06:00:00,63.0,61.2,29.83,South,170,6.0,11.0,94,0.00,,---,0.00,VWS V14.01,2013-03-31 11:00:00,
2013-03-31 06:05:00,63.2,61.5,29.83,SSE,148,5.0,7.0,94,0.00,,---,0.00,VWS V14.01,2013-03-31 11:05:00,
2013-03-31 06:10:00,63.2,61.5,29.83,SSW,193,2.0,7.0,94,0.00,,---,0.00,VWS V14.01,2013-03-31 11:10:00,
2013-03-31 06:15:00,63.2,61.5,29.83,SSE,166,5.0,8.0,94,0.00,,---,0.00,VWS V14.01,2013-03-31 11:15:00,
2013-03-31 06:20:00,63.3,61.5,29.83,SSE,158,6.0,8.0,94,0.00,,---,0.00,VWS V14.01,2013-03-31 11:20:00,
2013-03-31 06:25:00,63.4,61.7,29.83,SSE,163,4.0,8.0,94,0.00,,---,0.00,VWS V14.01,2013-03-31 11:25:00,
2013-03-31 06:30:00,63.4,61.7,29.83,South,181,4.0,8.0,94,0.00,,---,0.00,VWS V14.01,2013-03-31 11:30:00,
2013-03-31 06:35:00,63.5,61.4,29.82,South,180,8.0,8.0,93,0.00,,---,0.00,VWS V14.01,2013-03-31 11:35:00,
2013-03-31 06:40:00,63.7,61.6,29.82,SSE,161,6.0,9.0,93,0.00,,---,0.00,VWS V14.01,2013-03-31 11:40:00,
2013-03-31 06:45:00,63.8,61.7,29.82,South,181,8.0,9.0,93,0.00,,---,0.00,VWS V14.01,2013-03-31 11:45:00,
2013-03-31 06:50:00,63.8,61.7,29.82,South,186,7.0,9.0,93,0.00,,---,0.00,VWS V14.01,2013-03-31 11:50:00,
2013-03-31 06:55:00,63.9,61.8,29.82,SSE,162,6.0,10.0,93,0.00,,---,0.00,VWS V14.01,2013-03-31 11:55:00,
2013-03-31 07:00:00,64.1,62.0,29.83,SSE,151,3.0,10.0,93,0.00,,---,0.00,VWS V14.01,2013-03-31 12:00:00,
2013-03-31 07:05:00,64.3,62.2,29.83,SSE,163,9.0,9.0,93,0.00,,---,0.00,VWS V14.01,2013-03-31 12:05:00,
2013-03-31 07:10:00,64.4,62.3,29.83,SSE,166,4.0,9.0,93,0.00,,---,0.00,VWS V14.01,2013-03-31 12:10:00,
2013-03-31 07:15:00,64.5,62.1,29.83,South,187,2.0,9.0,92,0.00,,---,0.00,VWS V14.01,2013-03-31 12:15:00,
2013-03-31 07:20:00,64.4,62.0,29.83,SSE,150,4.0,9.0,92,0.00,,---,0.00,VWS V14.01,2013-03-31 12:20:00,
2013-03-31 07:25:00,64.4,62.0,29.83,SSW,193,2.0,9.0,92,0.00,,---,0.00,VWS V14.01,2013-03-31 12:25:00,
2013-03-31 07:30:00,64.3,61.9,29.83,SSE,147,2.0,9.0,92,0.00,,---,0.00,VWS V14.01,2013-03-31 12:30:00,
2013-03-31 07:35:00,64.2,61.5,29.83,SE,143,2.0,4.0,91,0.00,,---,0.00,VWS V14.01,2013-03-31 12:35:00,
2013-03-31 07:40:00,64.0,61.6,29.83,ESE,116,4.0,5.0,92,0.00,,---,0.00,VWS V14.01,2013-03-31 12:40:00,
2013-03-31 07:45:00,64.1,61.7,29.83,SSE,161,2.0,5.0,92,0.00,,---,0.00,VWS V14.01,2013-03-31 12:45:00,
2013-03-31 07:50:00,64.2,62.1,29.84,SE,127,1.0,5.0,93,0.00,,---,0.00,VWS V14.01,2013-03-31 12:50:00,
2013-03-31 07:55:00,64.4,62.0,29.84,SE,139,1.0,5.0,92,0.00,,---,0.00,VWS V14.01,2013-03-31 12:55:00,
2013-03-31 08:00:00,64.3,61.9,29.83,SE,127,2.0,5.0,92,0.00,,---,0.00,VWS V14.01,2013-03-31 13:00:00,
2013-03-31 08:05:00,64.0,61.6,29.84,SSE,147,1.0,3.0,92,0.00,,---,0.00,VWS V14.01,2013-03-31 13:05:00,
2013-03-31 08:10:00,64.2,62.1,29.84,SE,142,2.0,5.0,93,0.00,,---,0.00,VWS V14.01,2013-03-31 13:10:00,
2013-03-31 08:15:00,64.4,62.0,29.83,SSE,150,3.0,6.0,92,0.00,,---,0.00,VWS V14.01,2013-03-31 13:15:00,
2013-03-31 08:20:00,64.1,61.4,29.83,SSE,148,3.0,6.0,91,0.00,,---,0.00,VWS V14.01,2013-03-31 13:20:00,
2013-03-31 08:25:00,64.1,62.0,29.83,SSE,159,4.0,9.0,93,0.00,,---,0.00,VWS V14.01,2013-03-31 13:25:00,
2013-03-31 08:30:00,64.5,62.4,29.83,South,169,9.0,10.0,93,0.00,,---,0.00,VWS V14.01,2013-03-31 13:30:00,
2013-03-31 08:35:00,64.8,62.4,29.84,South,169,7.0,13.0,92,0.00,,---,0.00,VWS V14.01,2013-03-31 13:35:00,
2013-03-31 08:40:00,65.1,62.7,29.84,SW,225,8.0,13.0,92,0.00,,---,0.00,VWS V14.01,2013-03-31 13:40:00,
2013-03-31 08:45:00,65.2,62.5,29.84,SSW,200,4.0,13.0,91,0.00,,---,0.00,VWS V14.01,2013-03-31 13:45:00,
2013-03-31 08:50:00,65.3,62.9,29.89,WNW,301,12.0,13.0,92,0.00,,---,0.00,VWS V14.01,2013-03-31 13:50:00,
2013-03-31 08:55:00,63.6,57.3,29.92,NNW,339,33.0,35.0,80,0.00,,---,0.00,VWS V14.01,2013-03-31 13:55:00,
2013-03-31 09:00:00,60.3,56.1,29.92,North,351,12.0,35.0,86,0.01,,---,0.01,VWS V14.01,2013-03-31 14:00:00,
2013-03-31 09:05:00,58.5,55.6,29.95,North,3,5.0,18.0,90,0.11,,---,0.11,VWS V14.01,2013-03-31 14:05:00,
2013-03-31 09:10:00,57.5,55.2,29.97,NW,321,9.0,18.0,92,0.26,,---,0.26,VWS V14.01,2013-03-31 14:10:00,
2013-03-31 09:15:00,57.0,55.0,29.96,NW,308,1.0,18.0,93,0.38,,---,0.38,VWS V14.01,2013-03-31 14:15:00,
2013-03-31 09:20:00,56.8,55.1,29.95,NE,42,2.0,18.0,94,0.49,,---,0.49,VWS V14.01,2013-03-31 14:20:00,
2013-03-31 09:25:00,56.8,55.1,29.95,East,101,0.0,18.0,94,0.54,,---,0.54,VWS V14.01,2013-03-31 14:25:00,
2013-03-31 09:30:00,56.8,55.4,29.94,NE,34,8.0,18.0,95,0.60,,---,0.60,VWS V14.01,2013-03-31 14:30:00,
2013-03-31 09:35:00,57.0,55.6,29.93,ENE,76,2.0,9.0,95,0.63,,---,0.63,VWS V14.01,2013-03-31 14:35:00,
2013-03-31 09:40:00,57.1,55.7,29.92,NE,50,5.0,11.0,95,0.66,,---,0.66,VWS V14.01,2013-03-31 14:40:00,
2013-03-31 09:45:00,57.1,55.7,29.92,East,81,6.0,11.0,95,0.67,,---,0.67,VWS V14.01,2013-03-31 14:45:00,
2013-03-31 09:50:00,57.2,55.8,29.92,NE,39,3.0,12.0,95,0.68,,---,0.68,VWS V14.01,2013-03-31 14:50:00,
2013-03-31 10:00:00,57.3,55.9,29.91,NE,45,4.0,14.0,95,0.79,,---,0.79,VWS V14.01,2013-03-31 15:00:00,
2013-03-31 10:30:00,57.8,56.4,29.90,ENE,68,4.0,10.0,95,0.77,,---,0.79,VWS V14.01,2013-03-31 15:30:00,
2013-03-31 11:00:00,60.0,58.3,29.89,East,90,3.0,6.0,94,0.18,,---,0.79,VWS V14.01,2013-03-31 16:00:00,
2013-03-31 11:30:00,62.8,58.9,29.92,East,90,2.0,7.0,87,0.00,,---,0.79,VWS V14.01,2013-03-31 16:30:00,
2013-03-31 12:00:00,63.5,58.6,29.92,East,90,2.0,5.0,84,0.00,,---,0.79,VWS V14.01,2013-03-31 17:00:00,
2013-03-31 12:30:00,64.5,58.9,29.92,ESE,112,2.0,4.0,82,0.00,,---,0.79,VWS V14.01,2013-03-31 17:30:00,
2013-03-31 13:00:00,64.6,58.7,29.94,SSW,202,2.0,7.0,81,0.00,,---,0.79,VWS V14.01,2013-03-31 18:00:00,
2013-03-31 13:30:00,64.4,58.8,29.93,SW,225,4.0,8.0,82,0.00,,---,0.79,VWS V14.01,2013-03-31 18:30:00,
2013-03-31 14:00:00,64.5,58.5,29.91,SSE,158,3.0,8.0,81,0.00,,---,0.79,VWS V14.01,2013-03-31 19:00:00,
2013-03-31 14:30:00,65.7,60.1,29.91,ESE,112,3.0,6.0,82,0.00,,---,0.79,VWS V14.01,2013-03-31 19:30:00,
2013-03-31 15:00:00,68.6,60.4,29.91,ESE,112,1.0,4.0,75,0.00,,---,0.79,VWS V14.01,2013-03-31 20:00:00,
2013-03-31 15:30:00,71.4,61.9,29.90,NW,315,1.0,5.0,72,0.00,,---,0.79,VWS V14.01,2013-03-31 20:30:00,
2013-03-31 16:00:00,71.6,59.7,29.89,NW,315,2.0,11.0,66,0.00,,---,0.79,VWS V14.01,2013-03-31 21:00:00,
2013-03-31 16:30:00,72.3,58.6,29.89,NW,315,4.0,9.0,62,0.00,,---,0.79,VWS V14.01,2013-03-31 21:30:00,
2013-03-31 17:00:00,72.5,58.8,29.88,NW,315,4.0,10.0,62,0.00,,---,0.79,VWS V14.01,2013-03-31 22:00:00,
2013-03-31 17:30:00,72.4,57.8,29.88,NW,315,4.0,10.0,60,0.00,,---,0.79,VWS V14.01,2013-03-31 22:30:00,
2013-03-31 18:00:00,72.3,55.7,29.87,NW,315,3.0,11.0,56,0.00,,---,0.79,VWS V14.01,2013-03-31 23:00:00,
2013-03-31 18:30:00,71.6,57.5,29.88,NW,315,3.0,8.0,61,0.00,,---,0.79,VWS V14.01,2013-03-31 23:30:00,
2013-03-31 19:00:00,70.4,57.2,29.89,NW,315,3.0,7.0,63,0.00,,---,0.79,VWS V14.01,2013-04-01 00:00:00,
2013-03-31 19:30:00,69.0,56.3,29.89,NNW,338,1.0,6.0,64,0.00,,---,0.79,VWS V14.01,2013-04-01 00:30:00,
2013-03-31 20:00:00,67.0,55.3,29.90,NW,315,0.0,2.0,66,0.00,,---,0.79,VWS V14.01,2013-04-01 01:00:00,
2013-03-31 20:30:00,64.5,55.3,29.90,NW,315,0.0,0.0,72,0.00,,---,0.79,VWS V14.01,2013-04-01 01:30:00,
2013-03-31 21:00:00,62.3,54.7,29.91,NW,315,0.0,0.0,76,0.00,,---,0.79,VWS V14.01,2013-04-01 02:00:00,
2013-03-31 21:30:00,60.8,55.9,29.92,NW,315,0.0,0.0,84,0.00,,---,0.79,VWS V14.01,2013-04-01 02:30:00,
2013-03-31 22:00:00,58.8,54.3,29.93,NW,315,0.0,0.0,85,0.00,,---,0.79,VWS V14.01,2013-04-01 03:00:00,
2013-03-31 22:30:00,58.2,54.0,29.94,NW,315,0.0,0.0,86,0.00,,---,0.79,VWS V14.01,2013-04-01 03:30:00,
2013-03-31 23:00:00,57.2,54.3,29.94,NW,315,0.0,1.0,90,0.00,,---,0.79,VWS V14.01,2013-04-01 04:00:00,
2013-03-31 23:30:00,56.3,53.7,29.94,NW,315,0.0,0.0,91,0.00,,---,0.79,VWS V14.01,2013-04-01 04:30:00,